SL-16 R/B, 27006

Orbit data source: Space-Track

SL-16 R/B, 27006 is space debris in SSO originally from a launch on Mon, 10 Dec 2001 UTC launched from the Tyuratam Missile And Space Complex (TTMTR). Debris objects in space refer to the collection of defunct objects orbiting the Earth. Examples of debris include non-operational satellites, rocket bodies, and fragments generated from explosions, collisions, or faulty payload assembly.

Loading next visibility...
Identifier
27006, 2001-056F
Orbit
SSO
Country
Flag of CISCIS
Related business
Manufacturer
Yuzhnoe
Mission
Spacecraft
Bus & Motor
11S772, Unknown motor
Mass
~9,001 kg wet, 9,000 kg dry
Launch date (UTC)
2001-12-10 (24 years ago)
Launch vehicle
Unknown
Launch site
Tyuratam Missile And Space Complex (TTMTR)
Object type
Payload
Rocket body
Debris
Shape & HBR
Cyl, 5.2 m
Radar Cross Section
37.829 m², Large (>1 m²)

Expand to show TLE details & history
Last TLE update: 13 hours ago

TLE from 13 hours ago
0 SL-16 R/B
1 27006U 01056F   25310.28648418 -.00000022  00000-0  26888-4 0  9990
2 27006  99.7553 109.2422 0013860 306.0231 126.6869 13.71082877196286
Epoch: 2025-11-06T06:52Z
TLE epoch observation values (Epoch: 2025-11-06T06:52:32.233Z)
Latitude
70.40714°
Longitude
-68.35828°
Altitude
1,013.892 km
Speed
7.348 km/s
True Right ascension
05h 22m 05s
True Declination
70° 18' 07"
Sunlit
Object was in full shadow at epoch
Visualization orbit readout
Latitude
Unknown
Longitude
Unknown
Altitude
Unknown
Speed
Unknown
Apparent Right ascension
Unknown
Apparent Declination
Unknown
Sunlit
N/A
Visualization observer readout
Local Sidereal Time
15:52:53
Azimuth
Unknown
Elevation
Unknown
Doppler factor
Unknown
Orbital elements
Apogee altitude
1,003.178 km
Perigee altitude
982.746 km
Semi-major axis
7,371.099 km
Eccentricity
0.00139
Inclination
99.7553°
RAAN
109.2422°
Arg. of periapsis
306.0231°
True anomaly
126.81413°
Mean anomaly
126.6869°
Eccentric anomaly
126.75053°
Mean motion
3.42961 °/min
Orbital period
104.97 mins
BSTAR
0.000026888
Loading maneuver chart data...
Computing Atmospheric mass density...
Loading historical data...
Loading historical data...
Loading historical data...
Loading historical data...
Loading historical data...
Loading historical data...
Loading historical data...

Documentation

Showing up to 5 results
|